Home   Weather   Fremont   Past weeks

Flag for USA Past Weather in Fremont, California, USA — Yesterday and Last 2 Weeks

Now
60 °F

Passing clouds.


Feels Like: 60 °F
Forecast: 57 / 74 °F
Wind: 10 mph from North

Location: Moffett Field

Current Time: Sep 28, 2016 at 8:34:30 PM

Latest Report: Sep 28, 2016 at 7:56 PM


Visibility: 10 mi

Pressure: 29.94 "Hg

Humidity: 83%

Dew Point: 55 °F

Location of FremontLocation

Past Weather in Fremont — Graph

°F

Fremont Temperature Yesterday

Maximum temperature yesterday: 89 °F (at 1:56 PM)
Minimum temperature yesterday: 61 °F (at 5:56 AM)
Average temperature yesterday: 73 °F

High & Low Weather Summary for the Past Weeks

 TemperatureHumidityPressure
High95 °F (Sep 26, 3:56 PM)87% (Sep 17, 5:56 AM)30.17 "Hg (Sep 17, 5:56 AM)
Low52 °F (Sep 23, 5:56 AM)15% (Sep 27, 1:56 PM)29.83 "Hg (Sep 27, 5:56 PM)
Average68 °F59%30.00 "Hg
* Reported Sep 13 6:56 PM — Sep 28 6:56 PM, Fremont, Weather by CustomWeather, © 2016

Note: Actual official high and low records may vary slightly from our data, if they occured in-between our weather recording intervals... More about our weather records

Advertising

Fremont Weather History for the Previous 24 Hours

Scroll right to see more
 ConditionsComfort  
Time TempWeatherWind HumidityBarometerVisibility
6:56 PM
Wed, Sep 28
62 °FClear.9 mph80%29.92 "Hg10 mi
5:56 PM66 °FSunny.9 mph70%29.90 "Hg10 mi
4:56 PM68 °FSunny.10 mph65%29.89 "Hg10 mi
3:56 PM70 °FSunny.13 mph64%29.88 "Hg10 mi
2:56 PM73 °FSunny.10 mph59%29.88 "Hg10 mi
1:56 PM76 °FSunny.12 mph52%29.89 "Hg10 mi
12:56 PM75 °FSunny.9 mph54%29.90 "Hg10 mi
11:56 AM71 °FSunny.8 mph63%29.91 "Hg10 mi
10:56 AM68 °FSunny.8 mph70%29.92 "Hg10 mi
9:56 AM66 °FSunny.7 mph73%29.92 "Hg10 mi
8:56 AM64 °FSunny.5 mph75%29.91 "Hg10 mi
7:56 AM61 °FSunny.No wind78%29.90 "Hg10 mi
6:56 AM60 °FClear.No wind78%29.89 "Hg10 mi
5:56 AM59 °FClear.No wind81%29.88 "Hg10 mi
4:56 AM61 °FClear.No wind78%29.87 "Hg10 mi
3:56 AM61 °FClear.No wind78%29.87 "Hg10 mi
2:56 AM62 °FClear.3 mph78%29.87 "Hg10 mi
1:56 AM63 °FClear.No wind78%29.88 "Hg10 mi
12:56 AM63 °FClear.3 mph78%29.88 "Hg10 mi
11:56 PM
Tue, Sep 27
64 °FClear.3 mph81%29.88 "Hg10 mi
10:56 PM66 °FClear.No wind68%29.87 "Hg10 mi
9:56 PM69 °FClear.No wind63%29.87 "Hg10 mi
8:56 PM69 °FClear.3 mph61%29.87 "Hg10 mi
Weather by CustomWeather, © 2016

See weather overviewHow to use our weather pages